Hebron, NE

8:10 PM CST on January 21, 2017 (GMT -0600)
Hebron

Weather History for KHJH - February, 2014

Change the Weather History Date:

Monday, February 24, 2014

  Actual Average Record
Temperature  
Mean Temperature 30 °F -  
Max Temperature 35 °F 44 °F 66 °F (1958)
Min Temperature 24 °F 21 °F -10 °F (1965)
Degree Days  
Heating Degree Days 36    
Moisture  
Dew Point 18 °F    
Average Humidity 68    
Maximum Humidity 82    
Minimum Humidity 44    
Precipitation  
Precipitation 0.00 in - - ()
Sea Level Pressure  
Sea Level Pressure 30.25 in    
Wind  
Wind Speed 6 mph (East)    
Max Wind Speed 14 mph    
Max Gust Speed 18 mph    
Visibility 10 miles    
Events      
Averages and records for this station are not official NWS values.
T = Trace of Precipitation, MM = Missing Value Source: NWS Daily Summary

Daily Weather History Graph

Daily Weather History Graph

Search for Another Location

Airport or City:

Trip Planner

Search our weather history database for the weather conditions in past years. The results will help you decide how hot, cold, wet, or windy it might be!

Date:

Astronomy

Feb. 24, 2014 Rise Set
Actual Time 7:11 AM CST 6:16 PM CST
Civil Twilight 6:43 AM CST 6:43 PM CST
Nautical Twilight 6:12 AM CST 7:15 PM CST
Astronomical Twilight 5:40 AM CST 7:46 PM CST
Moon 3:11 AM CST (2/24) 1:18 PM CST (2/24)
Length of Visible Light 12h 00m
Length of Day
11h 05m
Waning Crescent, 28% of the Moon is Illuminated
Feb 24
Waning Crescent
Mar 1
New
Mar 8
First Quarter
Mar 16
Full
Mar 23
Last Quarter

Hourly Weather History & Observations

Time (CST) Temp. Windchill Dew Point Humidity Pressure Visibility Wind Dir Wind Speed Gust Speed Precip Events Conditions
12:15 AM 26.6 °F - 18.1 °F 70% 30.33 in 10.0 mi Calm Calm - N/A   Overcast
12:35 AM 26.6 °F 22.6 °F 18.5 °F 71% 30.32 in 10.0 mi NNE 3.5 mph - N/A   Overcast
12:55 AM 26.6 °F - 17.2 °F 68% 30.33 in 10.0 mi Calm Calm - N/A   Overcast
1:15 AM 26.6 °F - 16.9 °F 67% 30.34 in 10.0 mi Calm Calm - N/A   Overcast
1:35 AM 27.0 °F - 15.8 °F 63% 30.34 in 10.0 mi Calm Calm - N/A   Overcast
1:55 AM 26.4 °F 20.9 °F 16.5 °F 66% 30.34 in 10.0 mi NE 4.6 mph - N/A   Overcast
2:15 AM 25.7 °F 18.0 °F 16.9 °F 69% 30.33 in 10.0 mi NE 6.9 mph - N/A   Overcast
2:35 AM 25.3 °F 18.5 °F 18.3 °F 75% 30.33 in 10.0 mi NE 5.8 mph - N/A   Overcast
2:55 AM 25.2 °F 19.5 °F 18.1 °F 75% 30.32 in 10.0 mi ENE 4.6 mph - N/A   Overcast
3:15 AM 24.8 °F 19.1 °F 18.9 °F 78% 30.32 in 10.0 mi ENE 4.6 mph - N/A   Overcast
3:35 AM 24.8 °F 17.9 °F 19.0 °F 79% 30.30 in 10.0 mi ENE 5.8 mph - N/A   Overcast
3:55 AM 24.4 °F 16.5 °F 19.2 °F 81% 30.29 in 10.0 mi East 6.9 mph - N/A   Mostly Cloudy
4:15 AM 24.3 °F 15.4 °F 19.0 °F 80% 30.28 in 10.0 mi East 8.1 mph - N/A   Mostly Cloudy
4:35 AM 24.4 °F 16.5 °F 19.4 °F 81% 30.28 in 10.0 mi ENE 6.9 mph - N/A   Overcast
4:55 AM 24.1 °F 16.0 °F 19.2 °F 82% 30.28 in 10.0 mi East 6.9 mph - N/A   Overcast
5:15 AM 24.1 °F 15.2 °F 19.0 °F 81% 30.28 in 10.0 mi East 8.1 mph - N/A   Overcast
5:35 AM 24.3 °F 14.6 °F 18.9 °F 80% 30.26 in 10.0 mi East 9.2 mph - N/A   Overcast
5:55 AM 24.1 °F 15.2 °F 19.2 °F 82% 30.27 in 10.0 mi East 8.1 mph - N/A   Overcast
6:15 AM 24.4 °F 17.5 °F 19.0 °F 80% 30.27 in 10.0 mi East 5.8 mph - N/A   Overcast
6:35 AM 24.4 °F 17.5 °F 19.4 °F 81% 30.28 in 10.0 mi East 5.8 mph - N/A   Overcast
6:55 AM 24.3 °F 16.3 °F 19.2 °F 81% 30.28 in 10.0 mi East 6.9 mph - N/A   Overcast
7:15 AM 24.3 °F 15.4 °F 19.4 °F 82% 30.28 in 10.0 mi East 8.1 mph - N/A   Overcast
7:35 AM 24.3 °F 15.4 °F 19.4 °F 82% 30.29 in 10.0 mi East 8.1 mph - N/A   Overcast
7:55 AM 24.4 °F 16.5 °F 19.4 °F 81% 30.29 in 10.0 mi East 6.9 mph - N/A   Overcast
8:15 AM 24.4 °F 14.9 °F 19.4 °F 81% 30.30 in 10.0 mi East 9.2 mph - N/A   Overcast
8:35 AM 24.6 °F 16.7 °F 19.2 °F 80% 30.30 in 10.0 mi East 6.9 mph - N/A   Overcast
8:55 AM 24.8 °F 17.9 °F 19.2 °F 79% 30.30 in 10.0 mi East 5.8 mph - N/A   Overcast
9:15 AM 25.2 °F 16.5 °F 19.2 °F 78% 30.29 in 10.0 mi East 8.1 mph - N/A   Overcast
9:35 AM 25.3 °F 16.0 °F 19.2 °F 78% 30.28 in 10.0 mi ESE 9.2 mph - N/A   Overcast
9:55 AM 25.5 °F 16.9 °F 19.2 °F 77% 30.29 in 10.0 mi East 8.1 mph - N/A   Overcast
10:15 AM 25.7 °F 16.4 °F 19.2 °F 76% 30.29 in 10.0 mi ESE 9.2 mph - N/A   Overcast
10:35 AM 26.4 °F 16.6 °F 18.9 °F 73% 30.28 in 10.0 mi ESE 10.4 mph - N/A   Overcast
10:55 AM 27.0 °F 15.6 °F 18.3 °F 70% 30.27 in 10.0 mi SE 13.8 mph - N/A   Overcast
11:15 AM 27.7 °F 17.1 °F 18.7 °F 69% 30.26 in 10.0 mi SE 12.7 mph 17.3 mph N/A   Overcast
11:35 AM 28.4 °F 17.5 °F 17.2 °F 63% 30.26 in 10.0 mi SSE 13.8 mph - N/A   Overcast
11:55 AM 28.2 °F 17.2 °F 16.5 °F 62% 30.25 in 10.0 mi SE 13.8 mph 17.3 mph N/A   Overcast
12:15 PM 28.4 °F 18.0 °F 17.4 °F 63% 30.24 in 10.0 mi SE 12.7 mph 16.1 mph N/A   Overcast
12:35 PM 28.4 °F 18.5 °F 17.4 °F 63% 30.23 in 10.0 mi SE 11.5 mph - N/A   Overcast
12:55 PM 28.8 °F 19.5 °F 17.1 °F 62% 30.22 in 10.0 mi SSE 10.4 mph - N/A   Overcast
1:15 PM 29.3 °F 19.1 °F 17.1 °F 60% 30.18 in 10.0 mi SE 12.7 mph - N/A   Overcast
1:35 PM 29.7 °F 19.6 °F 17.1 °F 59% 30.18 in 10.0 mi SE 12.7 mph 16.1 mph N/A   Overcast
1:55 PM 30.4 °F 20.5 °F 17.6 °F 59% 30.16 in 10.0 mi SSE 12.7 mph - N/A   Overcast
2:15 PM 30.9 °F 22.8 °F 17.1 °F 57% 30.15 in 10.0 mi SSE 9.2 mph - N/A   Overcast
2:35 PM 31.6 °F 21.6 °F 16.5 °F 54% 30.13 in 10.0 mi South 13.8 mph 17.3 mph N/A   Overcast
2:55 PM 32.7 °F 23.4 °F 17.4 °F 53% 30.12 in 10.0 mi SE 12.7 mph 18.4 mph N/A   Mostly Cloudy
3:15 PM 33.3 °F 24.1 °F 16.3 °F 50% 30.12 in 10.0 mi SSE 12.7 mph - N/A   Scattered Clouds
3:35 PM 33.8 °F 24.8 °F 16.0 °F 48% 30.12 in 10.0 mi SSE 12.7 mph - N/A   Mostly Cloudy
3:55 PM 34.3 °F 25.5 °F 15.4 °F 46% 30.11 in 10.0 mi SE 12.7 mph 17.3 mph N/A   Scattered Clouds
4:15 PM 34.7 °F 26.9 °F 15.4 °F 45% 30.11 in 10.0 mi SSE 10.4 mph - N/A   Clear
4:35 PM 35.1 °F 30.1 °F 15.3 °F 44% 30.12 in 10.0 mi East 5.8 mph 9.2 mph N/A   Clear
4:55 PM 34.7 °F 30.6 °F 14.9 °F 44% 30.13 in 10.0 mi East 4.6 mph - N/A   Clear
5:15 PM 34.7 °F 28.8 °F 14.9 °F 44% 30.14 in 10.0 mi East 6.9 mph - N/A   Clear
5:35 PM 33.8 °F 27.7 °F 15.8 °F 48% 30.14 in 10.0 mi ENE 6.9 mph - N/A   Clear
5:55 PM 32.4 °F 26.9 °F 16.5 °F 52% 30.15 in 10.0 mi NE 5.8 mph - N/A   Clear
6:15 PM 31.1 °F 23.7 °F 16.5 °F 55% 30.17 in 10.0 mi NE 8.1 mph - N/A   Clear
6:35 PM 29.7 °F 22.0 °F 17.1 °F 59% 30.18 in 10.0 mi NE 8.1 mph - N/A   Clear
6:55 PM 28.8 °F 21.7 °F 17.1 °F 62% 30.20 in 10.0 mi NE 6.9 mph - N/A   Clear
7:15 PM 28.2 °F 20.2 °F 16.7 °F 62% 30.22 in 10.0 mi NE 8.1 mph - N/A   Scattered Clouds
7:35 PM 28.4 °F 19.7 °F 17.2 °F 63% 30.22 in 10.0 mi NE 9.2 mph - N/A   Mostly Cloudy
7:55 PM 28.2 °F 21.0 °F 17.2 °F 63% 30.21 in 10.0 mi ENE 6.9 mph - N/A   Overcast
8:15 PM 27.1 °F 21.8 °F 17.4 °F 67% 30.22 in 10.0 mi ENE 4.6 mph - N/A   Mostly Cloudy
8:35 PM 26.4 °F - 17.6 °F 69% 30.23 in 10.0 mi Calm Calm - N/A   Scattered Clouds
8:55 PM 26.6 °F 22.6 °F 18.0 °F 70% 30.24 in 10.0 mi NNE 3.5 mph - N/A   Scattered Clouds
9:15 PM 26.6 °F - 18.3 °F 71% 30.25 in 10.0 mi Calm Calm - N/A   Mostly Cloudy
9:35 PM 26.4 °F - 18.5 °F 72% 30.25 in 10.0 mi Calm Calm - N/A   Mostly Cloudy
9:55 PM 26.8 °F - 19.2 °F 73% 30.27 in 10.0 mi Calm Calm - N/A   Overcast
10:15 PM 27.3 °F - 18.7 °F 70% 30.27 in 10.0 mi Calm Calm - N/A   Overcast
10:35 PM 27.1 °F - 19.2 °F 72% 30.27 in 10.0 mi Calm Calm - N/A   Overcast
10:55 PM 27.3 °F - 19.8 °F 73% 30.26 in 10.0 mi Calm Calm - N/A   Overcast
11:15 PM 27.0 °F - 19.2 °F 73% 30.27 in 10.0 mi Calm Calm - N/A   Scattered Clouds
11:35 PM 26.2 °F 22.1 °F 20.3 °F 78% 30.29 in 10.0 mi WNW 3.5 mph - N/A   Scattered Clouds
11:55 PM 27.1 °F 19.7 °F 19.9 °F 74% 30.29 in 10.0 mi WNW 6.9 mph - N/A   Overcast